[[{"header":{"parameterUnit":"m.s-1","parameterCategory":1,"la1":30.2991,"la2":30.254,"lo1":-89.0895,"lo2":-89.0444,"dy":0.0017,"dx":0.0017,"nx":28,"ny":28,"refTime":"2023-11-21T03:00:00:Z","depth":0,"parameterNumber":2,"parameterNumberName":"U-component_of_WINDS"},"data":[0,0,0,0,0,0,0,0,0,0,0,0,0,0,0,0,0,0,0,0,0,0,0,0,0,0,0,0,0,0,0,0,0,0,0,0,0,0,0,0,0,0,0,0,0,0,0,0,0,0,0,0,0,0,0,0,0,0,-0.1168,-0.1167,0,-0.1083,-0.1082,-0.1081,-0.1062,-0.1063,-0.1064,-0.1064,-0.0969,-0.0966,-0.0963,0,0,0,0,0,0,0,0,0,0,0,0,0,-0.1307,-0.1304,-0.1168,-0.1167,-0.1166,-0.1083,-0.1082,-0.108,-0.1062,-0.1063,-0.1064,-0.1064,-0.097,-0.0966,-0.0963,0,0,0,0,0,0,0,0,0,0,0,0,0,-0.1236,-0.1303,-0.1168,-0.1147,-0.1144,-0.1083,-0.1082,-0.108,-0.1062,-0.1063,-0.1064,-0.1065,-0.0971,-0.0967,-0.0962,-0.0913,0,0,-0.0948,-0.0946,0,0,0,0,0,0,0,0,-0.124,-0.1231,-0.1151,-0.1148,-0.1145,-0.1084,-0.1095,-0.1024,-0.1062,-0.1093,-0.1064,-0.1065,-0.1006,-0.0999,-0.098,-0.0909,-0.0905,-0.0947,-0.0944,-0.0942,-0.0941,0,0,0,0,0,0,0,-0.1245,-0.1235,-0.1134,-0.115,-0.1146,-0.1139,-0.113,-0.1082,-0.1045,-0.109,-0.1089,-0.1079,-0.1004,-0.0985,-0.0978,-0.0904,-0.0947,-0.0943,-0.094,-0.0938,-0.0784,-0.0783,0,0,0,0,0,0,-0.1255,-0.1239,-0.1137,-0.1132,-0.1196,-0.1136,-0.1126,-0.1103,-0.1045,-0.1038,-0.1079,-0.1079,-0.0992,-0.0983,-0.0974,-0.0911,-0.0942,-0.0938,-0.0935,-0.0785,-0.0784,-0.0782,0,0,0,0,0,0,-0.1258,-0.1246,-0.114,-0.1185,-0.1171,-0.1132,-0.1107,-0.11,-0.1081,-0.1037,-0.1029,-0.1066,-0.0993,-0.0981,-0.0928,-0.0908,-0.0936,-0.0932,-0.0787,-0.0785,-0.0783,-0.0786,0,0,0,0,0,0,-0.1262,-0.1247,-0.1231,-0.1185,-0.1169,-0.1099,-0.1105,-0.1098,-0.1074,-0.1073,-0.1023,-0.1015,-0.0993,-0.0935,-0.0924,-0.0902,-0.0928,-0.0788,-0.0786,-0.0783,-0.0788,-0.0785,-0.0782,0,0,0,0,0,-0.1267,-0.1234,-0.123,-0.1218,-0.1148,-0.1098,-0.1088,-0.1065,-0.1072,-0.1053,-0.1024,-0.1017,-0.0912,-0.093,-0.0917,-0.0893,-0.0789,-0.0786,-0.0784,-0.0789,-0.0785,-0.0782,0,0,0,0,0,0,-0.1277,-0.1228,-0.1223,-0.1175,-0.1141,-0.1095,-0.1071,-0.1062,-0.1024,-0.1025,-0.0995,-0.0984,-0.0932,-0.0907,-0.0928,-0.0841,-0.0851,-0.0845,-0.0859,-0.0855,-0.0853,-0.0859,-0.0924,0,0,0,0,0,-0.1274,-0.1241,-0.1198,-0.116,-0.1143,-0.111,-0.1087,-0.1072,-0.1035,-0.102,-0.0987,-0.0949,-0.0907,-0.088,-0.0839,-0.0784,-0.0771,-0.0761,-0.0758,-0.0756,-0.0751,-0.0716,-0.071,-0.0773,-0.0773,-0.0773,0,0,-0.1267,-0.1236,-0.1216,-0.1161,-0.1133,-0.1095,-0.1098,-0.1059,-0.103,-0.1013,-0.0962,-0.0936,-0.0891,-0.0836,-0.081,-0.0814,-0.073,-0.0752,-0.0751,-0.0747,-0.0712,-0.0706,-0.0701,-0.0771,-0.0771,-0.0771,0,0,-0.1235,-0.1209,-0.1173,-0.1145,-0.1103,-0.108,-0.1072,-0.1026,-0.1009,-0.0957,-0.0943,-0.0906,-0.0836,-0.0803,-0.0778,-0.073,-0.072,-0.0717,-0.0701,-0.0668,-0.0663,-0.0658,-0.0639,-0.0632,-0.0712,-0.0712,-0.0712,0,-0.1231,-0.1177,-0.1155,-0.1116,-0.1091,-0.1075,-0.1036,-0.1009,-0.0955,-0.0936,-0.0941,-0.085,-0.0819,-0.0755,-0.0743,-0.0724,-0.0709,-0.0722,-0.0666,-0.0661,-0.0657,-0.0637,-0.063,-0.0712,-0.0712,-0.0712,-0.0712,0,-0.1172,-0.1134,-0.1109,-0.1059,-0.1031,-0.0992,-0.0961,-0.0934,-0.0921,-0.0897,-0.0842,-0.0804,-0.0754,-0.0737,-0.0724,-0.067,-0.0673,-0.0673,-0.0681,-0.0651,-0.0632,-0.0624,-0.0712,-0.0712,-0.0712,-0.0712,0,0,-0.1145,-0.1082,-0.1073,-0.1048,-0.1,-0.0968,-0.0927,-0.088,-0.0856,-0.0818,-0.078,-0.072,-0.0718,-0.0689,-0.0671,-0.0642,-0.0602,-0.0644,-0.0642,-0.0636,-0.0537,-0.0536,-0.0528,-0.0596,-0.0594,-0.0593,-0.054,0,-0.1105,-0.1034,-0.1012,-0.095,-0.0913,-0.0897,-0.086,-0.0824,-0.08,-0.0762,-0.0734,-0.069,-0.0693,-0.0675,-0.0646,-0.0614,-0.0582,-0.0617,-0.0557,-0.0555,-0.0567,-0.0519,-0.0519,-0.047,-0.0532,-0.0531,-0.053,0,-0.1049,-0.1012,-0.0948,-0.0901,-0.0884,-0.0852,-0.0805,-0.0771,-0.0728,-0.0712,-0.0678,-0.0662,-0.0614,-0.0626,-0.0557,-0.0582,-0.0555,-0.0536,-0.0533,-0.0525,-0.054,-0.0507,-0.0455,-0.0446,-0.0519,-0.052,-0.0521,0,-0.1033,-0.0966,-0.0918,-0.0898,-0.0843,-0.082,-0.0796,-0.0754,-0.0726,-0.0684,-0.0665,-0.0617,-0.059,-0.0552,-0.0522,-0.0534,-0.0454,-0.0465,-0.0436,-0.0437,-0.042,-0.0421,-0.036,-0.0406,-0.0406,-0.0406,-0.0406,0,-0.099,-0.095,-0.091,-0.088,-0.0834,-0.0808,-0.0762,-0.0736,-0.0698,-0.066,-0.0643,-0.0607,-0.057,-0.0528,-0.0504,-0.0449,-0.0437,-0.042,-0.0414,-0.0421,-0.0423,-0.0402,-0.0404,-0.0404,-0.0404,-0.0405,-0.0405,0,-0.0964,-0.0936,-0.0882,-0.0834,-0.0821,-0.0788,-0.0746,-0.0714,-0.0689,-0.0641,-0.0628,-0.0586,-0.0536,-0.0502,-0.0438,-0.0421,-0.036,-0.0355,-0.0375,-0.0372,-0.0344,-0.0347,-0.0266,-0.0253,-0.031,-0.031,-0.0309,0,-0.0938,-0.0907,-0.0856,-0.083,-0.0806,-0.0765,-0.0736,-0.0707,-0.0678,-0.0625,-0.0599,-0.0548,-0.0505,-0.0425,-0.0387,-0.0336,-0.0328,-0.0304,-0.032,-0.0327,-0.0325,-0.0326,-0.0321,-0.03,-0.03,-0.03,-0.0299,0,-0.0893,-0.088,-0.0841,-0.0796,-0.0763,-0.0725,-0.0687,-0.0667,-0.063,-0.0597,-0.0546,-0.0514,-0.0447,-0.0395,-0.034,-0.0311,-0.0297,-0.0294,-0.0285,-0.0291,-0.0302,-0.0293,-0.0366,-0.0296,-0.0297,-0.0297,-0.0297,-0.0297,-0.0864,-0.0835,-0.0794,-0.075,-0.0719,-0.0683,-0.065,-0.0621,-0.0579,-0.0524,-0.0509,-0.0455,-0.0408,-0.0334,-0.0303,-0.0258,-0.026,-0.0247,-0.0243,-0.024,-0.0238,-0.0311,-0.0248,-0.0248,-0.0248,-0.0248,-0.0248,0,-0.0817,-0.0789,-0.0749,-0.0697,-0.0661,-0.0655,-0.0611,-0.0581,-0.0535,-0.0494,-0.0452,-0.0392,-0.034,-0.0298,-0.0244,-0.0216,-0.0208,-0.0202,-0.0203,-0.0195,-0.0241,-0.0254,-0.0209,-0.0209,-0.0209,-0.0209,-0.0209,-0.0209,-0.0788,-0.0738,-0.0719,-0.0651,-0.0623,-0.0572,-0.0547,-0.0513,-0.048,-0.0414,-0.0372,-0.0345,-0.0302,-0.0245,-0.0196,-0.0184,-0.0164,-0.0159,-0.0146,-0.0189,-0.0193,-0.0197,-0.0209,-0.0156,-0.0155,-0.0104,-0.0103,-0.0103]},{"header":{"parameterUnit":"m.s-1","parameterCategory":1,"la1":30.2991,"la2":30.254,"lo1":-89.0895,"lo2":-89.0444,"dy":0.0017,"dx":0.0017,"nx":28,"ny":28,"refTime":"2023-11-21T03:00:00:Z","depth":0,"parameterNumber":3,"parameterNumberName":"V-component_of_WINDS"},"data":[0,0,0,0,0,0,0,0,0,0,0,0,0,0,0,0,0,0,0,0,0,0,0,0,0,0,0,0,0,0,0,0,0,0,0,0,0,0,0,0,0,0,0,0,0,0,0,0,0,0,0,0,0,0,0,0,0,0,4.3911,4.3913,0,4.4127,4.413,4.4132,4.4165,4.4163,4.4161,4.4159,4.4391,4.4399,4.4407,0,0,0,0,0,0,0,0,0,0,0,0,0,4.3536,4.3543,4.391,4.3913,4.3916,4.4127,4.413,4.4133,4.4166,4.4163,4.4161,4.4158,4.4389,4.4398,4.4408,0,0,0,0,0,0,0,0,0,0,0,0,0,4.3721,4.3545,4.391,4.3957,4.3964,4.4126,4.413,4.4134,4.4166,4.4163,4.416,4.4157,4.4386,4.4397,4.4409,4.4543,0,0,4.4446,4.4451,0,0,0,0,0,0,0,0,4.371,4.3735,4.3948,4.3954,4.3962,4.4116,4.4083,4.4271,4.4167,4.409,4.4159,4.4156,4.4303,4.4321,4.4369,4.4554,4.4563,4.4447,4.4454,4.4459,4.4463,0,0,0,0,0,0,0,4.3697,4.3725,4.3997,4.3951,4.3959,4.3972,4.3995,4.4119,4.4211,4.4096,4.4099,4.4124,4.4306,4.4357,4.4375,4.4567,4.4447,4.4457,4.4465,4.4469,4.4878,4.4882,0,0,0,0,0,0,4.3675,4.3715,4.399,4.4003,4.3826,4.3981,4.4006,4.407,4.4209,4.4227,4.4126,4.4124,4.4338,4.4361,4.4383,4.4553,4.4459,4.4471,4.4477,4.4875,4.4879,4.4883,0,0,0,0,0,0,4.3666,4.3699,4.3981,4.386,4.3896,4.399,4.4061,4.4075,4.4126,4.4231,4.4249,4.416,4.4337,4.4366,4.4503,4.4561,4.4476,4.4487,4.4871,4.4876,4.4881,4.489,0,0,0,0,0,0,4.3656,4.3696,4.3744,4.386,4.3903,4.4094,4.4064,4.4082,4.4146,4.4146,4.4269,4.4286,4.4337,4.4485,4.4515,4.4576,4.4496,4.4866,4.4873,4.488,4.4885,4.4895,4.4904,0,0,0,0,0,4.3642,4.3739,4.3746,4.3779,4.3965,4.4097,4.4122,4.4175,4.415,4.4202,4.4271,4.4282,4.4549,4.4499,4.4533,4.4598,4.4863,4.4871,4.4879,4.4881,4.4893,4.4903,0,0,0,0,0,0,4.363,4.3755,4.3765,4.3901,4.3988,4.4102,4.4169,4.4185,4.4283,4.4279,4.4344,4.4372,4.4507,4.4566,4.4508,4.4738,4.4704,4.472,4.4694,4.4707,4.4716,4.47,4.4506,0,0,0,0,0,4.3642,4.3735,4.3841,4.3952,4.3995,4.4074,4.4134,4.4167,4.4261,4.4299,4.4377,4.4471,4.4576,4.4644,4.4747,4.4893,4.4924,4.4955,4.4965,4.4972,4.4985,4.5073,4.509,4.491,4.491,4.491,0,0,4.367,4.375,4.3806,4.3952,4.4023,4.4122,4.4105,4.421,4.4286,4.4316,4.445,4.4511,4.4621,4.4764,4.4832,4.4818,4.5042,4.4982,4.4987,4.4997,4.5083,4.51,4.5115,4.4916,4.4915,4.4914,0,0,4.3773,4.384,4.3942,4.4014,4.4121,4.4174,4.4198,4.4311,4.4352,4.4487,4.4513,4.4607,4.4785,4.4864,4.4927,4.5063,4.508,4.5095,4.5144,4.5229,4.5243,4.5256,4.5309,4.5327,4.5107,4.5107,4.5107,0,4.3795,4.3942,4.3993,4.4098,4.4164,4.4193,4.43,4.4368,4.4504,4.4551,4.4533,4.4761,4.4836,4.5001,4.5034,4.5083,4.5117,4.5082,4.5236,4.525,4.5263,4.5314,4.5333,4.5109,4.5109,4.5108,4.5108,0,4.3967,4.4069,4.4139,4.4268,4.4341,4.4446,4.4518,4.4587,4.4615,4.4671,4.4812,4.4903,4.5027,4.5068,4.5097,4.5239,4.5228,4.5222,4.519,4.528,4.533,4.535,4.5111,4.511,4.511,4.5109,0,0,4.4067,4.4224,4.4249,4.431,4.4432,4.4514,4.4623,4.4742,4.4802,4.4896,4.4993,4.5144,4.5141,4.5213,4.5251,4.5325,4.5433,4.5311,4.5315,4.5334,4.5601,4.5607,4.5629,4.5443,4.5447,4.545,4.5594,0,4.4186,4.4377,4.4428,4.4593,4.4691,4.4722,4.4818,4.4905,4.4962,4.5057,4.512,4.5229,4.5213,4.5258,4.5331,4.5403,4.5488,4.5393,4.5539,4.5544,4.5513,4.5654,4.566,4.5791,4.5613,4.5616,4.5618,0,4.4351,4.4447,4.462,4.4733,4.4777,4.4861,4.4976,4.5065,4.5168,4.5204,4.5285,4.5317,4.5438,4.5398,4.5567,4.5502,4.5565,4.561,4.5617,4.5635,4.5588,4.568,4.5833,4.5854,4.5649,4.5646,4.5644,0,4.4412,4.4584,4.4712,4.4762,4.4896,4.4956,4.5015,4.5114,4.5184,4.5286,4.5333,4.5448,4.5512,4.5603,4.5668,4.5632,4.5835,4.5799,4.5873,4.5872,4.5916,4.5913,4.6085,4.595,4.595,4.595,4.5949,0,4.4542,4.4648,4.4741,4.482,4.4942,4.5001,4.5121,4.5182,4.5271,4.5366,4.54,4.5489,4.5567,4.5669,4.5721,4.5856,4.5884,4.5921,4.5934,4.592,4.5916,4.5964,4.5958,4.5955,4.5954,4.5953,4.5952,0,4.4631,4.4697,4.4838,4.4954,4.4986,4.5071,4.5172,4.5252,4.531,4.543,4.5462,4.5555,4.5676,4.5749,4.5903,4.5938,4.609,4.6097,4.6054,4.6061,4.6133,4.6126,4.6345,4.6379,4.6217,4.6219,4.622,0,4.4711,4.4793,4.4917,4.4982,4.5042,4.5145,4.5216,4.5279,4.5353,4.5478,4.5545,4.5668,4.5769,4.5963,4.6047,4.6167,4.618,4.6249,4.6199,4.6183,4.6187,4.6183,4.6194,4.6258,4.6259,4.626,4.6261,0,4.4847,4.4877,4.4976,4.5088,4.5171,4.5263,4.5355,4.5408,4.5487,4.5569,4.5692,4.5771,4.5929,4.6053,4.618,4.6247,4.627,4.6276,4.6301,4.6289,4.6262,4.6282,4.6081,4.6272,4.627,4.627,4.6269,4.6269,4.4938,4.5014,4.5114,4.5225,4.5301,4.5387,4.5469,4.5537,4.564,4.5771,4.5803,4.5934,4.604,4.6213,4.6283,4.639,4.6379,4.6413,4.6423,4.6431,4.6436,4.6242,4.6413,4.6413,4.6412,4.6412,4.6412,0,4.5079,4.5146,4.5247,4.5374,4.5463,4.5473,4.5577,4.5652,4.5765,4.586,4.596,4.6105,4.6226,4.632,4.6446,4.6514,4.6528,4.6545,4.6543,4.6559,4.6435,4.6403,4.6532,4.6532,4.6532,4.6532,4.6532,4.6532,4.5164,4.5295,4.5337,4.5508,4.5575,4.5701,4.576,4.5842,4.5919,4.6078,4.6178,4.6237,4.6334,4.6467,4.6581,4.6606,4.6653,4.6669,4.6697,4.658,4.6567,4.6555,4.6526,4.6678,4.6678,4.6813,4.6814,4.6815]}]]